{"data":{"norad_id":58958,"intl_designator":"2024-028D","name":"RAPTOR3","alt_names":[],"object_type":"PAYLOAD","status":"ACTIVE","operator":null,"country":"US","launch_date":"2024-02-14","launch_site_code":"AFETR","launch_vehicle":null,"mission":null,"orbit_class":"UNKNOWN","rcs_meters":null,"size_class":null,"mass_kg":null,"dimensions":null,"purposes":[],"wikipedia_slug":null,"has_3d_model":false,"image_url":null,"decayed_at":null,"tle_current":{"epoch":"2026-09-22T02:34:57.320832Z","epoch_age_seconds":113498,"freshness":"FRESH","line1":"1 58958U 24028D   26265.10760788 -.00000054  00000+0  26681-4 0  9995","line2":"2 58958  39.9922 318.0678 0010046  94.5438 265.6457 13.70489293130362","mean_motion":13.70489293,"eccentricity":0.0010046,"inclination_deg":39.9922,"raan_deg":318.0678,"arg_perigee_deg":94.5438,"mean_anomaly_deg":265.6457,"bstar":2.6681e-5,"rev_number":13036,"period_min":105.07196279132,"perigee_km":990.40503152927,"apogee_km":1005.2247941125,"semimajor_km":7375.9519128209,"source":"CELESTRAK","updated_at":"2026-09-23T09:00:19.082534Z"}}}